Regional Weather Roundup
Issued by NWS

Home | Current Version | Previous Version | Text Only | Print | Product List | Glossary Off
Versions: 1 2 3 4 5 6 7 8 9 10 11 12 13 14 15 16 17 18 19 20 21 22 23 24 25 26 27 28 29 30 31 32 33 34 35 36 37 38 39 40 41 42 43 44 45 46 47 48 49 50

000
ASUS43 KMPX 241101
RWRMN
WEATHER ROUNDUP FOR MINNESOTA
NATIONAL WEATHER SERVICE TWIN CITIES/CHANHASSEN MN
600 AM CDT TUE MAY 24 2016


NOTE: "FAIR" INDICATES FEW OR NO CLOUDS BELOW 12,000 FEET WITH NO
SIGNIFICANT WEATHER AND/OR OBSTRUCTIONS TO VISIBILITY. N/A MEANS
CURRENT SKY AND/OR WEATHER CONDITIONS ARE NOT AVAILABLE.

MNZ060>063-068>070-241200-
   Twin Cities Metro

CITY           SKY/WX    TMP DP  RH WIND       PRES   REMARKS
TWIN CITIES    MOCLDY    67  59  75 SW6       29.82R
ST PAUL        CLOUDY    65  60  84 SE5       29.83R
CRYSTAL        CLOUDY    64  59  83 SW6       29.80R
BLAINE         CLOUDY    64  63  94 SW5       29.82R
EDEN PRAIRIE   CLOUDY    64  59  83 SW6       29.81R
SOUTH ST PAUL  CLOUDY    66  60  79 S3        29.82R
LAKE ELMO      CLOUDY    64  61  88 S5        29.84R
$$
MNZ001>005-007-008-013>017-022>024-027-028-241200-
   Northwest Minnesota

CITY           SKY/WX    TMP DP  RH WIND       PRES   REMARKS
BEMIDJI        CLOUDY    54  49  83 CALM      29.80R
HALLOCK        CLOUDY    61  52  72 NW6       29.77R
ROSEAU         CLOUDY    55  50  82 CALM      29.79R
WARROAD        CLOUDY    55  52  88 NW3       29.78R
THIEF RVR FALL CLOUDY    57  48  72 W8        29.83R
CROOKSTON      LGT RAIN  59  52  77 W9        29.83R
FOSSTON          N/A     55  48  76 NW7       29.82R
DETROIT LAKES  RAIN      59  55  88 N3        29.85R
MOORHEAD       MOCLDY    59  48  67 N13       29.82S
PARK RAPIDS    LGT RAIN  58  52  80 E13       29.81R
MAHNOMEN       FAIR      56  50  82 NW6       29.82R
$$
MNZ006-009>011-018-025>026-241200-
   North Central Minnesota

CITY           SKY/WX    TMP DP  RH WIND       PRES   REMARKS
BAUDETTE       MOCLDY    52  48  86 CALM      29.77S
FLAG ISLAND    CLOUDY    59  52  77 SE3       29.76S
INTL FALLS     CLOUDY    55  54  96 CALM      29.79R
WASKISH        CLOUDY    55  54  94 CALM      29.79S
BIG FORK       LGT RAIN  61  54  77 SE6       29.78F
LONGVILLE      RAIN      57  55  94 W6        29.85R
GRAND RAPIDS     N/A    N/A N/A N/A MISG        N/A
CRANE LAKE     MOCLDY    54  54 100 CALM      29.82R FOG
ORR            CLOUDY    57  54  88 CALM      29.79R
COOK           CLOUDY    57  57 100 CALM      29.83R
WALKER         PTSUNNY   57  53  86 E7        29.80R
$$
MNZ012-019>021-037-241200-
   Northeast Minnesota

CITY           SKY/WX    TMP DP  RH WIND       PRES   REMARKS
DULUTH         FOG       59  58  96 NE6       29.82S VSB 1/2
ELY            CLOUDY    55  55 100 CALM      29.83R
HIBBING        LGT RAIN  58  57  97 VRB5      29.82R
EVELETH        CLOUDY    59  59 100 CALM      29.83S
DULUTH HARBOR  FOG       52  52 100 N6        29.82R VSB 3/4
TWO HARBORS    CLOUDY    63  57  82 SE3       29.82R THUNDER
SILVER BAY     CLOUDY    59  57  94 CALM      29.82R FOG
GRAND MARAIS     N/A     52  50  93 CALM      29.81S
G MARAIS ARPRT MOCLDY    57  54  88 CALM      29.85R FOG
$$
MNZ029>031-032-039>041-046>048-054>057-064-241200-
   West Central Minnesota

CITY           SKY/WX    TMP DP  RH WIND       PRES   REMARKS
FERGUS FALLS   CLOUDY    57  52  82 N12       29.78R
WHEATON        CLOUDY    61  55  82 NW7       29.82R
MORRIS         PTCLDY    55  55 100 CALM      29.80R
ALEXANDRIA     LGT RAIN  56  53  90 SW5       29.81R
ELBOW LAKE     FAIR      57  54  90 SW5       29.80R
WADENA         CLEAR     57  54  88 E6        29.82R
GLENWOOD       FOG       55  55 100 S3        29.81R VSB<1/4
APPLETON       PTCLDY    55  54  94 SE3       29.79R FOG
BENSON           N/A     55  54  94 CALM      29.80R FOG
ORTONVILLE     CLEAR     55  54  94 NW5       29.80R
MADISON        FOG       52  52 100 SE5       29.80R VSB<1/4
WILLMAR        FOG       59  59 100 SE5       29.83R VSB<1/4
$$
MNZ033>034-036-042>043-049>051-058-059-241200-
   Central Minnesota

CITY           SKY/WX    TMP DP  RH WIND       PRES   REMARKS
ST CLOUD       FOG       59  59 100 CALM      29.81R VSB 1/2
PAYNESVILLE    FOG       60  60 100 S3        29.82R VSB 3/4
AITKIN         CLOUDY    63  57  82 NW5       29.81R HAZE
PINE RIVER     CLOUDY    59  54  82 NW6       29.88R
BRAINERD       LGT RAIN  61  59  93 NE6       29.82R FOG
STAPLES        MOCLDY    61  59  94 NE3       29.83R FOG
LONG PRAIRIE   FAIR      55  55 100 S3        29.81R FOG
LITTLE FALLS   CLOUDY    59  57  94 CALM      29.82R FOG
LITCHFIELD     FOG       63  63 100 CALM      29.83R VSB 1
BUFFALO        CLEAR     62  60  93 CALM      29.83R FOG
MAPLE LAKE     CLEAR     63  62  97 S3        29.83R FOG
HUTCHINSON     CLOUDY    63  62  97 CALM      29.84R FOG
$$
MNZ037-044-045-052-053-241200-
   East Central Minnesota

CITY           SKY/WX    TMP DP  RH WIND       PRES   REMARKS
PRINCETON      PTCLDY    63  61  94 S3        29.81R FOG
MORA           CLOUDY    59  57  94 CALM      29.82S
CAMBRIDGE      PTCLDY    64  55  72 S3        29.80R HAZE
RUSH CITY      CLOUDY    61  59  95 S3        29.82R
MOOSE LAKE     CLOUDY    59  57  94 CALM      29.80R
HINCKLEY       FAIR      61  61 100 CALM      29.81R
CLOQUET        CLOUDY    59  57  94 CALM      29.82R THUNDER FOG
MCGREGOR       CLOUDY    61  59  94 CALM      29.82R
$$
MNZ071>073-080-081-089-090-097-098-241200-
   Southwest Minnesota

CITY           SKY/WX    TMP DP  RH WIND       PRES   REMARKS
MONTEVIDEO     CLEAR     57  57 100 CALM      29.82R FOG
GRANITE FALLS  CLOUDY    59  58  99 S3        29.82S FOG
CANBY          FOG       64  63  96 SW8       29.80S VSB 1
MARSHALL       PTCLDY    62  60  93 S7        29.82R FOG
REDWOOD FALLS  CLOUDY    61  59  93 S6        29.81S FOG
OLIVIA         FOG       59  57  94 S7        29.82R VSB 3/4
PIPESTONE      FOG       63  61  94 S9        29.83R VSB 1
WINDOM         CLEAR     61  59  94 S7        29.84S
WORTHINGTON    CLOUDY    61  59  93 S13       29.84S FOG
JACKSON        CLOUDY    61  55  82 S8        29.86R
SLAYTON        CLEAR     61  61 100 S9        29.84R FOG
$$
MNZ065>067-074>077-082>085-091>093-241200-
   South Central Minnesota

CITY           SKY/WX    TMP DP  RH WIND       PRES   REMARKS
MANKATO        CLOUDY    63  57  82 SW8       29.84S
NEW ULM        CLEAR     61  59  94 S5        29.83R FOG
ST JAMES       CLEAR     55  54  94 S3        29.84R
FAIRMONT       CLOUDY    63  57  82 SW9       29.84S
GLENCOE        PTCLDY    63  63 100 S6        29.82R
OWATONNA       CLOUDY    64  59  82 SW8       29.85R
WASECA         MOCLDY    63  59  88 SW7       29.86S
ALBERT LEA     CLOUDY    64  61  88 MISG      29.85S
$$
MNZ078>079-086>088-094>096-241200-
   Southeast Minnesota

CITY           SKY/WX    TMP DP  RH WIND       PRES   REMARKS
ROCHESTER      MOCLDY    64  61  90 S9        29.86R
RED WING       CLOUDY    64  63  94 S5        29.84R
STANTON        PTCLDY    63  59  86 CALM      29.82S
DODGE CENTER   CLOUDY    64  61  88 SW9       29.86R
WINONA         CLOUDY    63  61  94 SE3       29.86R
AUSTIN         CLOUDY    63  59  88 SW5       29.86R
PRESTON        CLOUDY    62  56  82 S8        29.88R
$$
ABBREVIATIONS USED IN REMARKS
   TC - TEMPERATURES IN CELSIUS
  WCI - WIND CHILL INDEX
   HX - HEAT INDEX
  VSB - VISIBILITY
$$




USA.gov is the U.S. government's official web portal to all federal, state and local government web resources and services.